Year,Month,Day,Hour,Minute,Value (Times are PST for temperature in C)
2020,08,05,00,00,19.40
2020,08,05,00,01,19.40
2020,08,05,00,02,19.40
2020,08,05,00,03,19.40
2020,08,05,00,04,19.30
2020,08,05,00,05,19.30
2020,08,05,00,06,19.20
2020,08,05,00,07,19.20
2020,08,05,00,08,19.20
2020,08,05,00,09,19.10
2020,08,05,00,10,19.10
2020,08,05,00,11,19.10
2020,08,05,00,12,19.00
2020,08,05,00,13,19.00
2020,08,05,00,14,19.00
2020,08,05,00,15,19.00
2020,08,05,00,16,18.90
2020,08,05,00,17,18.90
2020,08,05,00,18,18.80
2020,08,05,00,19,18.80
2020,08,05,00,20,18.70
2020,08,05,00,21,18.70
2020,08,05,00,22,18.70
2020,08,05,00,23,18.60
2020,08,05,00,24,18.60
2020,08,05,00,25,18.60
2020,08,05,00,26,18.60
2020,08,05,00,27,18.50
2020,08,05,00,28,18.50
2020,08,05,00,29,18.50
2020,08,05,00,30,18.50
2020,08,05,00,31,18.50
2020,08,05,00,32,18.40
2020,08,05,00,33,18.40
2020,08,05,00,34,18.30
2020,08,05,00,35,18.30
2020,08,05,00,36,18.30
2020,08,05,00,37,18.20
2020,08,05,00,38,18.20
2020,08,05,00,39,18.20
2020,08,05,00,40,18.20
2020,08,05,00,41,18.20
2020,08,05,00,42,18.20
2020,08,05,00,43,18.30
2020,08,05,00,44,18.30
2020,08,05,00,45,18.40
2020,08,05,00,46,18.50
2020,08,05,00,47,18.50
2020,08,05,00,48,18.60
2020,08,05,00,49,18.60
2020,08,05,00,50,18.70
2020,08,05,00,51,18.70
2020,08,05,00,52,18.70
2020,08,05,00,53,18.70
2020,08,05,00,54,18.80
2020,08,05,00,55,18.80
2020,08,05,00,56,18.80
2020,08,05,00,57,18.80
2020,08,05,00,58,18.90
2020,08,05,00,59,18.90
2020,08,05,01,00,19.00
2020,08,05,01,01,19.10
2020,08,05,01,02,19.20
2020,08,05,01,03,19.20
2020,08,05,01,04,19.30
2020,08,05,01,05,19.30
2020,08,05,01,06,19.30
2020,08,05,01,07,19.30
2020,08,05,01,08,19.30
2020,08,05,01,09,19.30
2020,08,05,01,10,19.30
2020,08,05,01,11,19.30
2020,08,05,01,12,19.30
2020,08,05,01,13,19.30
2020,08,05,01,14,19.30
2020,08,05,01,15,19.30
2020,08,05,01,16,19.20
2020,08,05,01,17,19.20
2020,08,05,01,18,19.20
2020,08,05,01,19,19.20
2020,08,05,01,20,19.10
2020,08,05,01,21,19.10
2020,08,05,01,22,19.10
2020,08,05,01,23,19.00
2020,08,05,01,24,19.00
2020,08,05,01,25,18.90
2020,08,05,01,26,18.90
2020,08,05,01,27,18.90
2020,08,05,01,28,18.80
2020,08,05,01,29,18.80
2020,08,05,01,30,18.70
2020,08,05,01,31,18.60
2020,08,05,01,32,18.60
2020,08,05,01,33,18.60
2020,08,05,01,34,18.60
2020,08,05,01,35,18.50
2020,08,05,01,36,18.50
2020,08,05,01,37,18.50
2020,08,05,01,38,18.50
2020,08,05,01,39,18.40
2020,08,05,01,40,18.40
2020,08,05,01,41,18.40
2020,08,05,01,42,18.40
2020,08,05,01,43,18.40
2020,08,05,01,44,18.40
2020,08,05,01,45,18.30
2020,08,05,01,46,18.30
2020,08,05,01,47,18.30
2020,08,05,01,48,18.20
2020,08,05,01,49,18.20
2020,08,05,01,50,18.20
2020,08,05,01,51,18.30
2020,08,05,01,52,18.30
2020,08,05,01,53,18.20
2020,08,05,01,54,18.20
2020,08,05,01,55,18.30
2020,08,05,01,56,18.20
2020,08,05,01,57,18.20
2020,08,05,01,58,18.20
2020,08,05,01,59,18.20
2020,08,05,02,00,18.10
2020,08,05,02,01,18.10
2020,08,05,02,02,18.10
2020,08,05,02,03,18.00
2020,08,05,02,04,17.90
2020,08,05,02,05,17.90
2020,08,05,02,06,17.90
2020,08,05,02,07,17.80
2020,08,05,02,08,17.80
2020,08,05,02,09,17.80
2020,08,05,02,10,17.80
2020,08,05,02,11,17.80
2020,08,05,02,12,17.80
2020,08,05,02,13,17.70
2020,08,05,02,14,17.70
2020,08,05,02,15,17.70
2020,08,05,02,16,17.60
2020,08,05,02,17,17.60
2020,08,05,02,18,17.50
2020,08,05,02,19,17.50
2020,08,05,02,20,17.40
2020,08,05,02,21,17.40
2020,08,05,02,22,17.30
2020,08,05,02,23,17.30
2020,08,05,02,24,17.30
2020,08,05,02,25,17.30
2020,08,05,02,26,17.30
2020,08,05,02,27,17.30
2020,08,05,02,28,17.30
2020,08,05,02,29,17.30
2020,08,05,02,30,17.20
2020,08,05,02,31,17.20
2020,08,05,02,32,17.20
2020,08,05,02,33,17.10
2020,08,05,02,34,17.10
2020,08,05,02,35,17.10
2020,08,05,02,36,17.00
2020,08,05,02,37,17.00
2020,08,05,02,38,16.90
2020,08,05,02,39,16.90
2020,08,05,02,40,16.90
2020,08,05,02,41,17.00
2020,08,05,02,42,17.00
2020,08,05,02,43,17.00
2020,08,05,02,44,17.00
2020,08,05,02,45,17.00
2020,08,05,02,46,17.00
2020,08,05,02,47,17.00
2020,08,05,02,48,17.00
2020,08,05,02,49,16.90
2020,08,05,02,50,16.90
2020,08,05,02,51,16.90
2020,08,05,02,52,16.90
2020,08,05,02,53,16.90
2020,08,05,02,54,16.90
2020,08,05,02,55,16.80
2020,08,05,02,56,16.80
2020,08,05,02,57,16.80
2020,08,05,02,58,16.70
2020,08,05,02,59,16.70
2020,08,05,03,00,16.70
2020,08,05,03,01,16.70
2020,08,05,03,02,16.60
2020,08,05,03,03,16.60
2020,08,05,03,04,16.60
2020,08,05,03,05,16.60
2020,08,05,03,06,16.60
2020,08,05,03,07,16.60
2020,08,05,03,08,16.60
2020,08,05,03,09,16.60
2020,08,05,03,10,16.60
2020,08,05,03,11,16.60
2020,08,05,03,12,16.60
2020,08,05,03,13,16.60
2020,08,05,03,14,16.60
2020,08,05,03,15,16.60
2020,08,05,03,16,16.60
2020,08,05,03,17,16.60
2020,08,05,03,18,16.60
2020,08,05,03,19,16.60
2020,08,05,03,20,16.60
2020,08,05,03,21,16.60
2020,08,05,03,22,16.60
2020,08,05,03,23,16.60
2020,08,05,03,24,16.60
2020,08,05,03,25,16.60
2020,08,05,03,26,16.60
2020,08,05,03,27,16.60
2020,08,05,03,28,16.60
2020,08,05,03,29,16.60
2020,08,05,03,30,16.60
2020,08,05,03,31,16.50
2020,08,05,03,32,16.50
2020,08,05,03,33,16.50
2020,08,05,03,34,16.40
2020,08,05,03,35,16.40
2020,08,05,03,36,16.40
2020,08,05,03,37,16.40
2020,08,05,03,38,16.40
2020,08,05,03,39,16.40
2020,08,05,03,40,16.40
2020,08,05,03,41,16.40
2020,08,05,03,42,16.40
2020,08,05,03,43,16.30
2020,08,05,03,44,16.30
2020,08,05,03,45,16.30
2020,08,05,03,46,16.30
2020,08,05,03,47,16.30
2020,08,05,03,48,16.20
2020,08,05,03,49,16.20
2020,08,05,03,50,16.20
2020,08,05,03,51,16.10
2020,08,05,03,52,16.10
2020,08,05,03,53,16.10
2020,08,05,03,54,16.10
2020,08,05,03,55,16.10
2020,08,05,03,56,16.00
2020,08,05,03,57,16.00
2020,08,05,03,58,16.00
2020,08,05,03,59,16.00
2020,08,05,04,00,16.00
2020,08,05,04,01,16.00
2020,08,05,04,02,16.00
2020,08,05,04,03,16.00
2020,08,05,04,04,16.00
2020,08,05,04,05,16.00
2020,08,05,04,06,16.00
2020,08,05,04,07,16.00
2020,08,05,04,08,16.00
2020,08,05,04,09,16.00
2020,08,05,04,10,16.00
2020,08,05,04,11,16.00
2020,08,05,04,12,16.00
2020,08,05,04,13,16.00
2020,08,05,04,14,16.00
2020,08,05,04,15,16.00
2020,08,05,04,16,16.00
2020,08,05,04,17,16.00
2020,08,05,04,18,15.90
2020,08,05,04,19,15.90
2020,08,05,04,20,15.90
2020,08,05,04,21,15.90
2020,08,05,04,22,15.90
2020,08,05,04,23,15.90
2020,08,05,04,24,15.80
2020,08,05,04,25,15.80
2020,08,05,04,26,15.80
2020,08,05,04,27,15.80
2020,08,05,04,28,15.80
2020,08,05,04,29,15.80
2020,08,05,04,30,15.70
2020,08,05,04,31,15.70
2020,08,05,04,32,15.70
2020,08,05,04,33,15.70
2020,08,05,04,34,15.70
2020,08,05,04,35,15.60
2020,08,05,04,36,15.60
2020,08,05,04,37,15.60
2020,08,05,04,38,15.60
2020,08,05,04,39,15.60
2020,08,05,04,40,15.60
2020,08,05,04,41,15.60
2020,08,05,04,42,15.60
2020,08,05,04,43,15.60
2020,08,05,04,44,15.60
2020,08,05,04,45,15.60
2020,08,05,04,46,15.60
2020,08,05,04,47,15.70
2020,08,05,04,48,15.70
2020,08,05,04,49,15.70
2020,08,05,04,50,15.70
2020,08,05,04,51,15.70
2020,08,05,04,52,15.70
2020,08,05,04,53,15.70
2020,08,05,04,54,15.70
2020,08,05,04,55,15.70
2020,08,05,04,56,15.70
2020,08,05,04,57,15.60
2020,08,05,04,58,15.60
2020,08,05,04,59,15.60
2020,08,05,05,00,15.60
2020,08,05,05,01,15.60
2020,08,05,05,02,15.50
2020,08,05,05,03,15.50
2020,08,05,05,04,15.50
2020,08,05,05,05,15.40
2020,08,05,05,06,15.40
2020,08,05,05,07,15.40
2020,08,05,05,08,15.40
2020,08,05,05,09,15.40
2020,08,05,05,10,15.40
2020,08,05,05,11,15.40
2020,08,05,05,12,15.40
2020,08,05,05,13,15.40
2020,08,05,05,14,15.40
2020,08,05,05,15,15.40
2020,08,05,05,16,15.40
2020,08,05,05,17,15.40
2020,08,05,05,18,15.40
2020,08,05,05,19,15.40
2020,08,05,05,20,15.40
2020,08,05,05,21,15.40
2020,08,05,05,22,15.50
2020,08,05,05,23,15.60
2020,08,05,05,24,15.60
2020,08,05,05,25,15.60
2020,08,05,05,26,15.60
2020,08,05,05,27,15.60
2020,08,05,05,28,15.60
2020,08,05,05,29,15.60
2020,08,05,05,30,15.60
2020,08,05,05,31,15.60
2020,08,05,05,32,15.60
2020,08,05,05,33,15.60
2020,08,05,05,34,15.50
2020,08,05,05,35,15.50
2020,08,05,05,36,15.50
2020,08,05,05,37,15.50
2020,08,05,05,38,15.50
2020,08,05,05,39,15.60
2020,08,05,05,40,15.60
2020,08,05,05,41,15.60
2020,08,05,05,42,15.60
2020,08,05,05,43,15.60
2020,08,05,05,44,15.60
2020,08,05,05,45,15.60
2020,08,05,05,46,15.60
2020,08,05,05,47,15.50
2020,08,05,05,48,15.60
2020,08,05,05,49,15.50
2020,08,05,05,50,15.60
2020,08,05,05,51,15.60
2020,08,05,05,52,15.60
2020,08,05,05,53,15.60
2020,08,05,05,54,15.60
2020,08,05,05,55,15.60
2020,08,05,05,56,15.60
2020,08,05,05,57,15.60
2020,08,05,05,58,15.60
2020,08,05,05,59,15.60
2020,08,05,06,00,15.60
2020,08,05,06,01,15.60
2020,08,05,06,02,15.60
2020,08,05,06,03,15.60
2020,08,05,06,04,15.60
2020,08,05,06,05,15.60
2020,08,05,06,06,15.60
2020,08,05,06,07,15.60
2020,08,05,06,08,15.60
2020,08,05,06,09,15.50
2020,08,05,06,10,15.50
2020,08,05,06,11,15.50
2020,08,05,06,12,15.50
2020,08,05,06,13,15.50
2020,08,05,06,14,15.50
2020,08,05,06,15,15.50
2020,08,05,06,16,15.50
2020,08,05,06,17,15.50
2020,08,05,06,18,15.40
2020,08,05,06,19,15.40
2020,08,05,06,20,15.40
2020,08,05,06,21,15.40
2020,08,05,06,22,15.30
2020,08,05,06,23,15.30
2020,08,05,06,24,15.30
2020,08,05,06,25,15.30
2020,08,05,06,26,15.30
2020,08,05,06,27,15.30
2020,08,05,06,28,15.30
2020,08,05,06,29,15.30
2020,08,05,06,30,15.30
2020,08,05,06,31,15.30
2020,08,05,06,32,15.30
2020,08,05,06,33,15.30
2020,08,05,06,34,15.30
2020,08,05,06,35,15.30
2020,08,05,06,36,15.30
2020,08,05,06,37,15.30
2020,08,05,06,38,15.30
2020,08,05,06,39,15.30
2020,08,05,06,40,15.30
2020,08,05,06,41,15.40
2020,08,05,06,42,15.40
2020,08,05,06,43,15.40
2020,08,05,06,44,15.50
2020,08,05,06,45,15.50
2020,08,05,06,46,15.60
2020,08,05,06,47,15.60
2020,08,05,06,48,15.60
2020,08,05,06,49,15.60
2020,08,05,06,50,15.60
2020,08,05,06,51,15.70
2020,08,05,06,52,15.70
2020,08,05,06,53,15.70
2020,08,05,06,54,15.70
2020,08,05,06,55,15.80
2020,08,05,06,56,15.80
2020,08,05,06,57,15.80
2020,08,05,06,58,15.90
2020,08,05,06,59,15.90
2020,08,05,07,00,15.90
2020,08,05,07,01,15.90
2020,08,05,07,02,16.00
2020,08,05,07,03,16.00
2020,08,05,07,04,16.10
2020,08,05,07,05,16.10
2020,08,05,07,06,16.10
2020,08,05,07,07,16.20
2020,08,05,07,08,16.30
2020,08,05,07,09,16.40
2020,08,05,07,10,16.50
2020,08,05,07,11,16.50
2020,08,05,07,12,16.60
2020,08,05,07,13,16.60
2020,08,05,07,14,16.70
2020,08,05,07,15,16.70
2020,08,05,07,16,16.80
2020,08,05,07,17,16.90
2020,08,05,07,18,16.90
2020,08,05,07,19,17.10
2020,08,05,07,20,17.10
2020,08,05,07,21,17.20
2020,08,05,07,22,17.20
2020,08,05,07,23,17.30
2020,08,05,07,24,17.40
2020,08,05,07,25,17.40
2020,08,05,07,26,17.50
2020,08,05,07,27,17.50
2020,08,05,07,28,17.60
2020,08,05,07,29,17.80
2020,08,05,07,30,17.90
2020,08,05,07,31,18.00
2020,08,05,07,32,18.10
2020,08,05,07,33,18.20
2020,08,05,07,34,18.30
2020,08,05,07,35,18.40
2020,08,05,07,36,18.50
2020,08,05,07,37,18.60
2020,08,05,07,38,18.70
2020,08,05,07,39,18.80
2020,08,05,07,40,18.80
2020,08,05,07,41,18.90
2020,08,05,07,42,19.00
2020,08,05,07,43,19.10
2020,08,05,07,44,19.20
2020,08,05,07,45,19.30
2020,08,05,07,46,19.40
2020,08,05,07,47,19.40
2020,08,05,07,48,19.50
2020,08,05,07,49,19.60
2020,08,05,07,50,19.60
2020,08,05,07,51,19.60
2020,08,05,07,52,19.70
2020,08,05,07,53,19.80
2020,08,05,07,54,19.90
2020,08,05,07,55,19.90
2020,08,05,07,56,19.90
2020,08,05,07,57,19.90
2020,08,05,07,58,20.00
2020,08,05,07,59,20.00
2020,08,05,08,00,20.00
2020,08,05,08,01,20.10
2020,08,05,08,02,20.10
2020,08,05,08,03,20.10
2020,08,05,08,04,20.10
2020,08,05,08,05,20.10
2020,08,05,08,06,20.10
2020,08,05,08,07,20.10
2020,08,05,08,08,20.10
2020,08,05,08,09,20.10
2020,08,05,08,10,20.10
2020,08,05,08,11,20.20
2020,08,05,08,12,20.20
2020,08,05,08,13,20.30
2020,08,05,08,14,20.30
2020,08,05,08,15,20.30
2020,08,05,08,16,20.50
2020,08,05,08,17,20.50
2020,08,05,08,18,20.60
2020,08,05,08,19,20.80
2020,08,05,08,20,20.90
2020,08,05,08,21,20.90
2020,08,05,08,22,21.00
2020,08,05,08,23,21.10
2020,08,05,08,24,21.30
2020,08,05,08,25,21.30
2020,08,05,08,26,21.40
2020,08,05,08,27,21.40
2020,08,05,08,28,21.40
2020,08,05,08,29,21.40
2020,08,05,08,30,21.40
2020,08,05,08,31,21.40
2020,08,05,08,32,21.40
2020,08,05,08,33,21.40
2020,08,05,08,34,21.40
2020,08,05,08,35,21.40
2020,08,05,08,36,21.40
2020,08,05,08,37,21.40
2020,08,05,08,38,21.40
2020,08,05,08,39,21.30
2020,08,05,08,40,21.30
2020,08,05,08,41,21.30
2020,08,05,08,42,21.20
2020,08,05,08,43,21.00
2020,08,05,08,44,20.90
2020,08,05,08,45,20.90
2020,08,05,08,46,20.80
2020,08,05,08,47,20.80
2020,08,05,08,48,20.80
2020,08,05,08,49,20.90
2020,08,05,08,50,20.90
2020,08,05,08,51,20.90
2020,08,05,08,52,20.90
2020,08,05,08,53,20.90
2020,08,05,08,54,20.90
2020,08,05,08,55,20.90
2020,08,05,08,56,20.80
2020,08,05,08,57,20.80
2020,08,05,08,58,20.80
2020,08,05,08,59,20.80
2020,08,05,09,00,20.80
2020,08,05,09,01,20.80
2020,08,05,09,02,20.80
2020,08,05,09,03,20.80
2020,08,05,09,04,20.80
2020,08,05,09,05,20.90
2020,08,05,09,06,20.90
2020,08,05,09,07,20.90
2020,08,05,09,08,21.00
2020,08,05,09,09,21.10
2020,08,05,09,10,21.10
2020,08,05,09,11,21.20
2020,08,05,09,12,21.20
2020,08,05,09,13,21.30
2020,08,05,09,14,21.30
2020,08,05,09,15,21.30
2020,08,05,09,16,21.40
2020,08,05,09,17,21.40
2020,08,05,09,18,21.50
2020,08,05,09,19,21.60
2020,08,05,09,20,21.60
2020,08,05,09,21,21.60
2020,08,05,09,22,21.60
2020,08,05,09,23,21.70
2020,08,05,09,24,21.70
2020,08,05,09,25,21.80
2020,08,05,09,26,21.90
2020,08,05,09,27,22.00
2020,08,05,09,28,22.10
2020,08,05,09,29,22.20
2020,08,05,09,30,22.20
2020,08,05,09,31,22.30
2020,08,05,09,32,22.40
2020,08,05,09,33,22.40
2020,08,05,09,34,22.50
2020,08,05,09,35,22.60
2020,08,05,09,36,22.70
2020,08,05,09,37,22.70
2020,08,05,09,38,22.80
2020,08,05,09,39,22.90
2020,08,05,09,40,22.90
2020,08,05,09,41,23.00
2020,08,05,09,42,23.10
2020,08,05,09,43,23.20
2020,08,05,09,44,23.30
2020,08,05,09,45,23.30
2020,08,05,09,46,23.30
2020,08,05,09,47,23.20
2020,08,05,09,48,23.10
2020,08,05,09,49,22.80
2020,08,05,09,50,22.60
2020,08,05,09,51,22.40
2020,08,05,09,52,22.30
2020,08,05,09,53,22.20
2020,08,05,09,54,22.20
2020,08,05,09,55,22.20
2020,08,05,09,56,22.30
2020,08,05,09,57,22.20
2020,08,05,09,58,22.20
2020,08,05,09,59,22.20
2020,08,05,10,00,22.20
2020,08,05,10,01,22.30
2020,08,05,10,02,22.30
2020,08,05,10,03,22.30
2020,08,05,10,04,22.30
2020,08,05,10,05,22.30
2020,08,05,10,06,22.40
2020,08,05,10,07,22.40
2020,08,05,10,08,22.50
2020,08,05,10,09,22.60
2020,08,05,10,10,22.70
2020,08,05,10,11,22.80
2020,08,05,10,12,22.90
2020,08,05,10,13,23.10
2020,08,05,10,14,23.20
2020,08,05,10,15,23.30
2020,08,05,10,16,23.30
2020,08,05,10,17,23.40
2020,08,05,10,18,23.40
2020,08,05,10,19,23.40
2020,08,05,10,20,23.50
2020,08,05,10,21,23.50
2020,08,05,10,22,23.50
2020,08,05,10,23,23.40
2020,08,05,10,24,23.30
2020,08,05,10,25,23.20
2020,08,05,10,26,23.10
2020,08,05,10,27,23.10
2020,08,05,10,28,22.90
2020,08,05,10,29,22.80
2020,08,05,10,30,22.80
2020,08,05,10,31,22.80
2020,08,05,10,32,22.80
2020,08,05,10,33,22.80
2020,08,05,10,34,22.80
2020,08,05,10,35,22.80
2020,08,05,10,36,22.90
2020,08,05,10,37,22.90
2020,08,05,10,38,23.00
2020,08,05,10,39,23.10
2020,08,05,10,40,23.20
2020,08,05,10,41,23.30
2020,08,05,10,42,23.40
2020,08,05,10,43,23.40
2020,08,05,10,44,23.50
2020,08,05,10,45,23.60
2020,08,05,10,46,23.50
2020,08,05,10,47,23.40
2020,08,05,10,48,23.40
2020,08,05,10,49,23.30
2020,08,05,10,50,23.40
2020,08,05,10,51,23.40
2020,08,05,10,52,23.40
2020,08,05,10,53,23.40
2020,08,05,10,54,23.40
2020,08,05,10,55,23.60
2020,08,05,10,56,23.70
2020,08,05,10,57,23.80
2020,08,05,10,58,23.90
2020,08,05,10,59,24.00
2020,08,05,11,00,24.20
2020,08,05,11,01,24.20
2020,08,05,11,02,24.20
2020,08,05,11,03,24.20
2020,08,05,11,04,24.10
2020,08,05,11,05,24.10
2020,08,05,11,06,24.10
2020,08,05,11,07,24.10
2020,08,05,11,08,24.10
2020,08,05,11,09,24.10
2020,08,05,11,10,24.20
2020,08,05,11,11,24.20
2020,08,05,11,12,24.20
2020,08,05,11,13,24.20
2020,08,05,11,14,24.20
2020,08,05,11,15,24.20
2020,08,05,11,16,24.20
2020,08,05,11,17,24.10
2020,08,05,11,18,24.00
2020,08,05,11,19,24.00
2020,08,05,11,20,24.00
2020,08,05,11,21,24.00
2020,08,05,11,22,23.90
2020,08,05,11,23,23.90
2020,08,05,11,24,23.90
2020,08,05,11,25,23.80
2020,08,05,11,26,23.90
2020,08,05,11,27,24.00
2020,08,05,11,28,24.10
2020,08,05,11,29,24.10
2020,08,05,11,30,24.10
2020,08,05,11,31,24.00
2020,08,05,11,32,24.00
2020,08,05,11,33,23.90
2020,08,05,11,34,23.80
2020,08,05,11,35,23.80
2020,08,05,11,36,23.80
2020,08,05,11,37,23.90
2020,08,05,11,38,24.00
2020,08,05,11,39,24.10
2020,08,05,11,40,24.00
2020,08,05,11,41,24.00
2020,08,05,11,42,23.90
2020,08,05,11,43,23.90
2020,08,05,11,44,23.90
2020,08,05,11,45,24.00
2020,08,05,11,46,24.00
2020,08,05,11,47,24.00
2020,08,05,11,48,24.10
2020,08,05,11,49,24.20
2020,08,05,11,50,24.30
2020,08,05,11,51,24.40
2020,08,05,11,52,24.50
2020,08,05,11,53,24.60
2020,08,05,11,54,24.70
2020,08,05,11,55,24.70
2020,08,05,11,56,24.70
2020,08,05,11,57,24.70
2020,08,05,11,58,24.70
2020,08,05,11,59,24.70
2020,08,05,12,00,24.70
2020,08,05,12,01,24.80
2020,08,05,12,02,24.80
2020,08,05,12,03,24.80
2020,08,05,12,04,24.80
2020,08,05,12,05,24.80
2020,08,05,12,06,24.70
2020,08,05,12,07,24.70
2020,08,05,12,08,24.70
2020,08,05,12,09,24.60
2020,08,05,12,10,24.70
2020,08,05,12,11,24.70
2020,08,05,12,12,24.70
2020,08,05,12,13,24.70
2020,08,05,12,14,24.70
2020,08,05,12,15,24.60
2020,08,05,12,16,24.70
2020,08,05,12,17,24.70
2020,08,05,12,18,24.80
2020,08,05,12,19,24.90
2020,08,05,12,20,24.90
2020,08,05,12,21,24.90
2020,08,05,12,22,24.90
2020,08,05,12,23,24.80
2020,08,05,12,24,24.80
2020,08,05,12,25,24.80
2020,08,05,12,26,24.70
2020,08,05,12,27,24.60
2020,08,05,12,28,24.50
2020,08,05,12,29,24.40
2020,08,05,12,30,24.30
2020,08,05,12,31,24.30
2020,08,05,12,32,24.40
2020,08,05,12,33,24.50
2020,08,05,12,34,24.70
2020,08,05,12,35,24.90
2020,08,05,12,36,25.00
2020,08,05,12,37,25.10
2020,08,05,12,38,25.20
2020,08,05,12,39,25.40
2020,08,05,12,40,25.50
2020,08,05,12,41,25.60
2020,08,05,12,42,25.60
2020,08,05,12,43,25.60
2020,08,05,12,44,25.60
2020,08,05,12,45,25.50
2020,08,05,12,46,25.60
2020,08,05,12,47,25.60
2020,08,05,12,48,25.60
2020,08,05,12,49,25.50
2020,08,05,12,50,25.50
2020,08,05,12,51,25.60
2020,08,05,12,52,25.60
2020,08,05,12,53,25.70
2020,08,05,12,54,25.70
2020,08,05,12,55,25.80
2020,08,05,12,56,25.80
2020,08,05,12,57,25.80
2020,08,05,12,58,25.80
2020,08,05,12,59,25.80
2020,08,05,13,00,25.80
2020,08,05,13,01,25.80
2020,08,05,13,02,25.80
2020,08,05,13,03,25.70
2020,08,05,13,04,25.70
2020,08,05,13,05,25.70
2020,08,05,13,06,25.70
2020,08,05,13,07,25.70
2020,08,05,13,08,25.70
2020,08,05,13,09,25.80
2020,08,05,13,10,26.00
2020,08,05,13,11,26.10
2020,08,05,13,12,26.30
2020,08,05,13,13,26.30
2020,08,05,13,14,26.40
2020,08,05,13,15,26.40
2020,08,05,13,16,26.40
2020,08,05,13,17,26.30
2020,08,05,13,18,26.20
2020,08,05,13,19,26.10
2020,08,05,13,20,26.10
2020,08,05,13,21,26.00
2020,08,05,13,22,25.90
2020,08,05,13,23,25.80
2020,08,05,13,24,25.70
2020,08,05,13,25,25.70
2020,08,05,13,26,25.70
2020,08,05,13,27,25.80
2020,08,05,13,28,25.80
2020,08,05,13,29,25.80
2020,08,05,13,30,25.90
2020,08,05,13,31,26.00
2020,08,05,13,32,26.10
2020,08,05,13,33,26.10
2020,08,05,13,34,26.10
2020,08,05,13,35,26.00
2020,08,05,13,36,26.00
2020,08,05,13,37,26.10
2020,08,05,13,38,26.10
2020,08,05,13,39,26.20
2020,08,05,13,40,26.20
2020,08,05,13,41,26.30
2020,08,05,13,42,26.30
2020,08,05,13,43,26.30
2020,08,05,13,44,26.30
2020,08,05,13,45,26.20
2020,08,05,13,46,26.20
2020,08,05,13,47,26.20
2020,08,05,13,48,26.20
2020,08,05,13,49,26.30
2020,08,05,13,50,26.40
2020,08,05,13,51,26.50
2020,08,05,13,52,26.60
2020,08,05,13,53,26.60
2020,08,05,13,54,26.60
2020,08,05,13,55,26.70
2020,08,05,13,56,26.70
2020,08,05,13,57,26.80
2020,08,05,13,58,26.80
2020,08,05,13,59,26.80
2020,08,05,14,00,26.80
2020,08,05,14,01,26.70
2020,08,05,14,02,26.70
2020,08,05,14,03,26.60
2020,08,05,14,04,26.40
2020,08,05,14,05,26.40
2020,08,05,14,06,26.30
2020,08,05,14,07,26.40
2020,08,05,14,08,26.40
2020,08,05,14,09,26.40
2020,08,05,14,10,26.40
2020,08,05,14,11,26.50
2020,08,05,14,12,26.50
2020,08,05,14,13,26.60
2020,08,05,14,14,26.70
2020,08,05,14,15,26.80
2020,08,05,14,16,26.90
2020,08,05,14,17,27.00
2020,08,05,14,18,27.10
2020,08,05,14,19,27.20
2020,08,05,14,20,27.30
2020,08,05,14,21,27.30
2020,08,05,14,22,27.30
2020,08,05,14,23,27.30
2020,08,05,14,24,27.40
2020,08,05,14,25,27.40
2020,08,05,14,26,27.40
2020,08,05,14,27,27.50
2020,08,05,14,28,27.50
2020,08,05,14,29,27.60
2020,08,05,14,30,27.70
2020,08,05,14,31,27.80
2020,08,05,14,32,27.70
2020,08,05,14,33,27.60
2020,08,05,14,34,27.50
2020,08,05,14,35,27.40
2020,08,05,14,36,27.40
2020,08,05,14,37,27.20
2020,08,05,14,38,27.10
2020,08,05,14,39,27.00
2020,08,05,14,40,27.10
2020,08,05,14,41,27.10
2020,08,05,14,42,27.10
2020,08,05,14,43,27.20
2020,08,05,14,44,27.20
2020,08,05,14,45,27.20
2020,08,05,14,46,27.20
2020,08,05,14,47,27.30
2020,08,05,14,48,27.30
2020,08,05,14,49,27.40
2020,08,05,14,50,27.40
2020,08,05,14,51,27.40
2020,08,05,14,52,27.40
2020,08,05,14,53,27.40
2020,08,05,14,54,27.50
2020,08,05,14,55,27.50
2020,08,05,14,56,27.50
2020,08,05,14,57,27.50
2020,08,05,14,58,27.50
2020,08,05,14,59,27.60
2020,08,05,15,00,27.60
2020,08,05,15,01,27.70
2020,08,05,15,02,27.80
2020,08,05,15,03,27.70
2020,08,05,15,04,27.70
2020,08,05,15,05,27.50
2020,08,05,15,06,27.40
2020,08,05,15,07,27.30
2020,08,05,15,08,27.30
2020,08,05,15,09,27.30
2020,08,05,15,10,27.30
2020,08,05,15,11,27.20
2020,08,05,15,12,27.10
2020,08,05,15,13,26.90
2020,08,05,15,14,26.80
2020,08,05,15,15,26.60
2020,08,05,15,16,26.50
2020,08,05,15,17,26.40
2020,08,05,15,18,26.40
2020,08,05,15,19,26.30
2020,08,05,15,20,26.30
2020,08,05,15,21,26.30
2020,08,05,15,22,26.20
2020,08,05,15,23,26.20
2020,08,05,15,24,26.20
2020,08,05,15,25,26.20
2020,08,05,15,26,26.20
2020,08,05,15,27,26.20
2020,08,05,15,28,26.20
2020,08,05,15,29,26.20
2020,08,05,15,30,26.20
2020,08,05,15,31,26.20
2020,08,05,15,32,26.30
2020,08,05,15,33,26.30
2020,08,05,15,34,26.30
2020,08,05,15,35,26.20
2020,08,05,15,36,26.20
2020,08,05,15,37,26.10
2020,08,05,15,38,26.00
2020,08,05,15,39,26.00
2020,08,05,15,40,25.90
2020,08,05,15,41,25.90
2020,08,05,15,42,25.80
2020,08,05,15,43,25.80
2020,08,05,15,44,25.70
2020,08,05,15,45,25.50
2020,08,05,15,46,25.40
2020,08,05,15,47,25.30
2020,08,05,15,48,25.30
2020,08,05,15,49,25.20
2020,08,05,15,50,25.20
2020,08,05,15,51,25.10
2020,08,05,15,52,25.10
2020,08,05,15,53,25.10
2020,08,05,15,54,25.10
2020,08,05,15,55,25.10
2020,08,05,15,56,25.10
2020,08,05,15,57,25.10
2020,08,05,15,58,25.10
2020,08,05,15,59,25.20
2020,08,05,16,00,25.10
2020,08,05,16,01,25.10
2020,08,05,16,02,25.00
2020,08,05,16,03,25.00
2020,08,05,16,04,24.90
2020,08,05,16,05,24.90
2020,08,05,16,06,24.80
2020,08,05,16,07,24.80
2020,08,05,16,08,24.70
2020,08,05,16,09,24.70
2020,08,05,16,10,24.70
2020,08,05,16,11,24.70
2020,08,05,16,12,24.60
2020,08,05,16,13,24.60
2020,08,05,16,14,24.60
2020,08,05,16,15,24.60
2020,08,05,16,16,24.60
2020,08,05,16,17,24.60
2020,08,05,16,18,24.60
2020,08,05,16,19,24.70
2020,08,05,16,20,24.80
2020,08,05,16,21,24.90
2020,08,05,16,22,24.90
2020,08,05,16,23,25.00
2020,08,05,16,24,25.10
2020,08,05,16,25,25.10
2020,08,05,16,26,25.20
2020,08,05,16,27,25.20
2020,08,05,16,28,25.30
2020,08,05,16,29,25.40
2020,08,05,16,30,25.50
2020,08,05,16,31,25.60
2020,08,05,16,32,25.80
2020,08,05,16,33,25.90
2020,08,05,16,34,26.10
2020,08,05,16,35,26.20
2020,08,05,16,36,26.20
2020,08,05,16,37,26.30
2020,08,05,16,38,26.40
2020,08,05,16,39,26.40
2020,08,05,16,40,26.40
2020,08,05,16,41,26.50
2020,08,05,16,42,26.60
2020,08,05,16,43,26.80
2020,08,05,16,44,26.80
2020,08,05,16,45,26.80
2020,08,05,16,46,26.80
2020,08,05,16,47,26.70
2020,08,05,16,48,26.70
2020,08,05,16,49,26.70
2020,08,05,16,50,26.70
2020,08,05,16,51,26.70
2020,08,05,16,52,26.60
2020,08,05,16,53,26.60
2020,08,05,16,54,26.50
2020,08,05,16,55,26.50
2020,08,05,16,56,26.50
2020,08,05,16,57,26.60
2020,08,05,16,58,26.60
2020,08,05,16,59,26.60
2020,08,05,17,00,26.60
2020,08,05,17,01,26.60
2020,08,05,17,02,26.70
2020,08,05,17,03,26.70
2020,08,05,17,04,26.80
2020,08,05,17,05,26.90
2020,08,05,17,06,26.90
2020,08,05,17,07,26.90
2020,08,05,17,08,26.80
2020,08,05,17,09,26.80
2020,08,05,17,10,26.70
2020,08,05,17,11,26.70
2020,08,05,17,12,26.70
2020,08,05,17,13,26.80
2020,08,05,17,14,26.90
2020,08,05,17,15,27.00
2020,08,05,17,16,27.00
2020,08,05,17,17,27.00
2020,08,05,17,18,27.10
2020,08,05,17,19,27.20